Location: Jackson Park
(37.2862°N, 79.9123°W)
Time: 20:49:45
(UTC+00:00)

Vanguard 2 - Pass Details

Date: 17 May 2026
Orbit: 553 x 2894 km, 32.9° (Epoch: 6 June)

Event Time Altitude Azimuth Distance (km) Brightness Sun altitude
Rises 04:18:17 0° 208° (SSW) 5,633 - -31.8°
Reaches altitude 10° 04:22:11 10° 199° (SSW) 4,922 - -32.0°
Maximum altitude 04:34:59 34° 141° (SE) 3,909 - -32.6°
Exits shadow 04:38:06 32° 124° (SE) 4,072 10.8 -32.7°
Drops below altitude 10° 04:49:37 10° 86° (E) 5,663 11.9 -33.0°
Sets 04:54:27 0° 78° (ENE) 6,560 12.3 -33.2°
